ZL1UCH Weather Reports


time (UTC)temp
C
wind
direction
speed
KPH
gust
KPH
rain 1hr
cm
rain 24hr
cm
rain mn
cm
humidity
%
barometer
mb
20260509024555 15 252 3.2 12.9 0.15 1.12 0.18 89 1006.5
20260509023041 15 257 4.8 17.7 0.13 1.09 0.15 87 1006.7
20260509021538 17 233 3.2 9.7 0.00 0.97 0.03 84 1006.6
20260509020035 17 288 12.9 25.7 0.00 0.97 0.03 81 1006.5
20260509014536 19 315 17.7 29.0 0.00 0.94 0.00 73 1006.7
20260509013042 20 290 9.7 25.7 0.00 0.94 0.00 73 1006.7
20260509011545 20 243 4.8 20.9 0.00 0.94 0.00 73 1006.7
20260509010041 20 297 11.3 27.4 0.00 0.94 0.00 72 1006.9
20260509004535 20 262 8.0 20.9 0.00 0.94 0.00 72 1007.1
20260509003037 20 300 9.7 22.5 0.00 0.94 0.00 73 1007.4
20260509001542 20 293 11.3 24.1 0.00 0.94 0.00 74 1007.7
20260509000040 20 254 9.7 25.7 0.00 0.94 0.00 75 1008.0
20260508234540 20 295 12.9 17.7 0.00 0.94 0.00 77 1008.3
20260508233038 20 303 11.3 22.5 0.00 0.94 0.00 79 1008.6
20260508231548 19 283 8.0 20.9 0.00 0.94 0.00 80 1008.8
20260508230045 19 305 9.7 19.3 0.00 0.94 0.00 80 1009.1
20260508224550 19 295 9.7 20.9 0.00 0.97 0.00 82 1009.2
20260508223041 18 290 8.0 20.9 0.00 0.97 0.00 82 1009.2
20260508221536 18 315 9.7 22.5 0.00 0.97 0.00 82 1009.3
20260508220039 18 303 9.7 16.1 0.00 0.97 0.00 81 1009.3
20260508214546 18 290 8.0 16.1 0.00 0.97 0.00 82 1009.3
20260508213041 18 269 6.4 17.7 0.00 0.97 0.00 82 1009.5
20260508211542 18 276 4.8 9.7 0.00 0.97 0.00 85 1009.4
20260508210038 17 285 3.2 9.7 0.00 0.97 0.00 86 1009.5
20260508204545 17 323 1.6 8.0 0.00 0.97 0.00 89 1009.4
20260508203042 16 257 3.2 11.3 0.00 0.97 0.00 92 1009.3
20260508201543 16 303 1.6 4.8 0.00 0.97 0.00 93 1009.2
20260508200041 15 250 1.6 4.8 0.00 0.97 0.00 93 1009.1
20260508194541 15 300 1.6 6.4 0.00 0.97 0.00 93 1009.0
20260508193038 15 275 1.6 6.4 0.00 0.97 0.00 93 1009.0
20260508191544 15 242 1.6 8.0 0.00 0.97 0.00 93 1009.1
20260508184543 15 276 1.6 8.0 0.00 0.97 0.00 93 1008.7
20260508183039 15 278 1.6 4.8 0.00 0.97 0.00 93 1008.5
20260508181543 15 299 1.6 6.4 0.00 0.97 0.00 93 1008.6
20260508180037 15 276 3.2 8.0 0.00 0.97 0.00 93 1008.5
20260508174538 15 307 1.6 8.0 0.00 0.99 0.00 93 1008.5
20260508173042 15 311 1.6 8.0 0.00 0.99 0.00 93 1008.5
20260508171542 15 308 1.6 4.8 0.00 0.99 0.00 93 1008.5
20260508170044 15 290 0.0 8.0 0.00 0.97 0.00 93 1008.3
20260508164542 15 236 3.2 8.0 0.00 0.97 0.00 94 1008.2
20260508163046 15 280 3.2 14.5 0.00 0.97 0.00 93 1008.3
20260508161552 15 294 3.2 8.0 0.00 0.97 0.00 94 1008.3
20260508160036 15 296 3.2 6.4 0.00 0.97 0.00 94 1008.4
20260508154535 15 298 3.2 9.7 0.00 0.97 0.00 94 1008.6
20260508153055 16 296 3.2 6.4 0.00 0.97 0.00 94 1008.6
20260508151542 16 271 3.2 8.0 0.00 0.97 0.00 94 1008.8
20260508150040 16 279 4.8 11.3 0.00 0.97 0.00 98 1009.0
20260508144538 16 303 4.8 12.9 0.00 0.97 0.00 98 1009.0
20260508143057 16 293 4.8 14.5 0.00 0.97 0.00 98 1009.1
20260508141546 16 297 6.4 16.1 0.00 0.97 0.00 98 1009.1
20260508140035 16 284 8.0 12.9 0.00 0.97 0.00 98 1009.3
20260508134541 16 276 4.8 9.7 0.00 0.97 0.00 98 1009.4
20260508133037 16 284 3.2 9.7 0.00 0.97 0.00 98 1009.6
20260508131541 16 265 3.2 11.3 0.00 0.97 0.00 98 1009.4
20260508130035 16 262 3.2 8.0 0.00 0.97 0.00 98 1009.6
20260508124536 16 315 3.2 9.7 0.00 0.97 0.00 98 1009.7
20260508123045 16 312 3.2 8.0 0.00 0.97 0.00 98 1009.7
20260508121545 16 304 3.2 8.0 0.00 0.97 0.00 98 1009.6
20260508120039 16 301 1.6 6.4 0.05 0.97 0.00 98 1009.6
20260508114542 16 279 1.6 9.7 0.08 0.97 0.97 98 1009.6
20260508113042 16 255 3.2 14.5 0.23 0.97 0.97 98 1009.7
20260508111543 16 277 4.8 14.5 0.25 0.97 0.97 98 1009.8
20260508110048 16 297 3.2 12.9 0.56 0.91 0.91 98 1009.9
20260508104544 16 240 4.8 17.7 0.61 0.86 0.86 97 1010.1
20260508103049 17 248 4.8 14.5 0.48 0.74 0.74 97 1010.3
20260508101542 18 252 12.9 25.7 0.53 0.71 0.71 98 1010.1
20260508100104 18 286 14.5 24.1 0.18 0.36 0.36 98 1009.7
20260508094547 18 339 12.9 32.2 0.08 0.25 0.25 98 1009.9
20260508093044 18 321 11.3 29.0 0.08 0.23 0.23 98 1009.9
20260508091552 18 321 16.1 25.7 0.03 0.18 0.18 98 1010.0
20260508090048 18 305 14.5 27.4 0.05 0.18 0.18 97 1010.1
20260508084535 18 335 12.9 25.7 0.08 0.18 0.18 97 1010.3
20260508083043 18 288 12.9 25.7 0.03 0.13 0.13 97 1010.4
20260508081554 18 285 14.5 27.4 0.05 0.13 0.13 97 1010.7
20260508080036 18 328 12.9 37.0 0.08 0.10 0.10 97 1010.8
20260508074537 18 316 17.7 38.6 0.05 0.08 0.08 96 1010.7
20260508073043 18 331 14.5 27.4 0.05 0.08 0.08 95 1010.8
20260508071541 19 323 12.9 30.6 0.03 0.08 0.08 93 1010.9
20260508070038 20 318 14.5 27.4 0.00 0.03 0.03 91 1010.7
20260508064538 20 354 14.5 30.6 0.00 0.03 0.03 91 1011.0
20260508063042 20 297 12.9 27.4 0.00 0.03 0.03 90 1011.0
20260508061542 19 271 12.9 29.0 0.00 0.03 0.03 90 1011.1
20260508060056 19 335 14.5 32.2 0.00 0.03 0.03 90 1011.2
20260508054615 19 279 12.9 25.7 0.00 0.03 0.03 90 1011.2
20260508053050 19 325 14.5 29.0 0.00 0.03 0.03 90 1011.6
20260508051537 19 333 14.5 27.4 0.00 0.03 0.03 90 1011.5
20260508050049 20 326 12.9 30.6 0.00 0.03 0.03 89 1011.4
20260508044542 20 352 11.3 27.4 0.00 0.03 0.03 88 1011.5
20260508043040 20 32 14.5 24.1 0.00 0.03 0.03 87 1011.6
20260508041535 20 307 12.9 29.0 0.00 0.03 0.03 86 1012.0
20260508040035 20 52 12.9 30.6 0.00 0.03 0.03 86 1011.6
20260508034543 20 340 14.5 32.2 0.00 0.03 0.03 85 1011.7
20260508033037 20 23 16.1 30.6 0.00 0.03 0.03 85 1012.3
20260508031537 20 328 12.9 29.0 0.00 0.03 0.03 85 1012.3
20260508030040 20 295 12.9 33.8 0.00 0.03 0.03 84 1012.3